K3RTA Weather Reports


Display with metric or nautical units.
time (UTC)temp
F
wind
direction
speed
MPH
gust
MPH
rain 1hr
in
rain 24hr
in
rain mn
in
humidity
%
barometer
mb
20260510173004 80 209 0.0 0.0 0.00 0.00 0.00 45 1011.3
20260510172004 79 313 0.0 2.0 0.00 0.00 0.00 45 1011.2
20260510171004 79 257 0.0 1.0 0.00 0.00 0.00 44 1011.3
20260510170004 79 135 0.0 1.0 0.00 0.00 0.00 46 1011.4
20260510165003 78 141 0.0 1.0 0.00 0.00 0.00 49 1011.4
20260510164004 78 322 0.0 0.0 0.00 0.00 0.00 49 1011.3
20260510163004 79 281 0.0 0.0 0.00 0.00 0.00 50 1011.3
20260510162004 77 306 0.0 0.0 0.00 0.00 0.00 51 1011.3
20260510161004 76 299 0.0 1.0 0.00 0.00 0.00 52 1011.5
20260510160004 76 250 0.0 1.0 0.00 0.00 0.00 53 1011.5
20260510155004 76 305 0.0 1.0 0.00 0.00 0.00 52 1011.5
20260510154004 75 285 0.0 2.0 0.00 0.00 0.00 52 1011.6
20260510153004 75 255 0.0 0.0 0.00 0.00 0.00 57 1011.6
20260510152004 74 191 0.0 3.0 0.00 0.00 0.00 59 1011.7
20260510151003 74 291 0.0 0.0 0.00 0.00 0.00 58 1011.7
20260510150004 73 276 0.0 0.0 0.00 0.00 0.00 59 1011.4
20260510145004 73 233 0.0 0.0 0.00 0.00 0.00 59 1011.4
20260510144004 71 290 0.0 0.0 0.00 0.00 0.00 63 1011.6
20260510143004 71 246 0.0 0.0 0.00 0.00 0.00 64 1011.5
20260510142004 69 284 0.0 0.0 0.00 0.00 0.00 69 1011.8
20260510141004 68 284 0.0 0.0 0.00 0.00 0.00 70 1011.8
20260510140005 68 269 0.0 0.0 0.00 0.00 0.00 72 1011.8
20260510134004 65 78 0.0 0.0 0.00 0.00 0.00 76 1011.7
20260510133004 63 200 0.0 0.0 0.00 0.00 0.00 79 1011.9
20260510131004 60 281 0.0 0.0 0.00 0.00 0.00 84 1011.9
20260510130004 59 31 0.0 0.0 0.00 0.00 0.00 85 1011.9
20260510125004 57 245 0.0 0.0 0.00 0.00 0.00 87 1011.9
20260510123004 56 245 0.0 0.0 0.00 0.00 0.00 88 1011.9
20260510122004 55 255 0.0 0.0 0.00 0.00 0.00 88 1011.8
20260510121003 55 130 0.0 0.0 0.00 0.00 0.00 87 1011.5
20260510120004 54 146 0.0 0.0 0.00 0.00 0.00 87 1011.5
20260510115004 53 138 0.0 0.0 0.00 0.00 0.00 87 1011.3
20260510114004 53 101 0.0 0.0 0.00 0.00 0.00 87 1011.3
20260510113005 52 6 0.0 0.0 0.00 0.00 0.00 87 1011.3
20260510112004 52 297 0.0 0.0 0.00 0.00 0.00 87 1011.2
20260510111004 51 290 0.0 0.0 0.00 0.00 0.00 87 1010.9
20260510110005 51 290 0.0 0.0 0.00 0.00 0.00 87 1010.8
20260510105003 50 290 0.0 0.0 0.00 0.00 0.00 87 1010.7
20260510104004 50 290 0.0 0.0 0.00 0.00 0.00 87 1010.6
20260510103004 50 290 0.0 0.0 0.00 0.00 0.00 87 1010.3
20260510102004 50 290 0.0 0.0 0.00 0.00 0.00 87 1010.2
20260510100004 50 290 0.0 0.0 0.00 0.00 0.00 88 1010.2
20260510095004 50 290 0.0 0.0 0.00 0.00 0.00 88 1010.1
20260510094004 51 289 0.0 0.0 0.00 0.00 0.00 87 1010.0
20260510093004 51 288 0.0 0.0 0.00 0.00 0.00 87 1010.0
20260510092004 51 134 0.0 0.0 0.00 0.00 0.00 87 1009.8
20260510091004 51 282 0.0 0.0 0.00 0.00 0.00 87 1009.9
20260510090004 51 295 0.0 0.0 0.00 0.00 0.00 87 1010.0
20260510085004 51 83 0.0 0.0 0.00 0.00 0.00 87 1009.6
20260510084004 50 127 0.0 0.0 0.00 0.00 0.00 87 1009.5
20260510083004 49 127 0.0 0.0 0.00 0.00 0.00 87 1009.4
20260510081004 50 127 0.0 0.0 0.00 0.00 0.00 88 1009.2
20260510080004 50 127 0.0 0.0 0.00 0.00 0.00 87 1009.2
20260510075004 50 127 0.0 0.0 0.00 0.00 0.00 87 1009.2
20260510074004 50 127 0.0 0.0 0.00 0.00 0.00 87 1009.2
20260510073004 50 128 0.0 0.0 0.00 0.00 0.00 87 1009.1
20260510072004 50 128 0.0 0.0 0.00 0.00 0.00 88 1009.0
20260510071004 50 128 0.0 0.0 0.00 0.00 0.00 88 1008.7
20260510070005 50 128 0.0 0.0 0.00 0.00 0.00 88 1008.6
20260510065004 50 128 0.0 0.0 0.00 0.00 0.00 88 1008.6
20260510064004 50 128 0.0 0.0 0.00 0.00 0.00 88 1008.6
20260510061004 51 128 0.0 0.0 0.00 0.00 0.00 88 1008.9
20260510060004 51 128 0.0 0.0 0.00 0.00 0.00 87 1008.9
20260510055004 51 128 0.0 0.0 0.00 0.00 0.00 87 1009.0
20260510054003 51 128 0.0 0.0 0.00 0.00 0.00 88 1009.0
20260510053004 51 128 0.0 0.0 0.00 0.00 0.00 88 1009.0
20260510052004 51 128 0.0 0.0 0.00 0.00 0.00 88 1009.1
20260510051004 51 128 0.0 0.0 0.00 0.00 0.00 88 1009.2
20260510050006 52 128 0.0 0.0 0.00 0.00 0.00 88 1009.2
20260510045007 52 128 0.0 0.0 0.00 0.00 0.00 88 1009.2
20260510044007 52 128 0.0 0.0 0.00 0.00 0.00 88 1009.3
20260510043006 52 128 0.0 0.0 0.00 0.00 0.00 88 1009.4
20260510042007 52 128 0.0 0.0 0.00 0.00 0.00 88 1009.3
20260510041007 52 128 0.0 0.0 0.00 0.00 0.00 88 1009.3
20260510035007 53 128 0.0 0.0 0.00 0.00 0.00 88 1009.4
20260510034007 53 128 0.0 0.0 0.00 0.00 0.00 88 1009.3
20260510033006 53 128 0.0 7.0 0.00 0.00 0.00 88 1009.2
20260510032007 53 128 0.0 0.0 0.00 0.00 0.00 88 1009.2
20260510031007 53 128 0.0 1.0 0.00 0.00 0.00 88 1009.1
20260510030006 53 128 0.0 5.0 0.00 0.00 0.00 88 1009.0
20260510025006 53 128 0.0 2.0 0.00 0.00 0.00 88 1008.9
20260510024007 53 128 0.0 20.0 0.00 0.00 0.00 88 1009.0
20260510023007 54 128 0.0 63.0 0.00 0.00 0.00 88 1008.9
20260510022006 54 128 29.0 121.0 0.00 0.00 0.00 88 1008.9
20260510021007 54 128 0.0 1.0 0.00 0.00 0.00 87 1009.0
20260510020007 54 128 0.0 1.0 0.00 0.00 0.00 87 1008.9
20260510015007 55 128 0.0 0.0 0.00 0.00 0.00 87 1008.8
20260510014006 55 128 0.0 3.0 0.00 0.00 0.00 86 1008.7
20260510013007 55 128 0.0 3.0 0.00 0.00 0.00 86 1008.6
20260510012007 56 128 1.0 3.0 0.00 0.00 0.00 85 1008.5
20260510011006 56 128 0.0 0.0 0.00 0.00 0.00 85 1008.5
20260510010006 57 128 0.0 0.0 0.00 0.00 0.00 84 1008.4
20260510004007 58 128 0.0 0.0 0.00 0.00 0.00 82 1008.4
20260510002006 59 128 0.0 0.0 0.00 0.00 0.00 79 1008.3
20260510001007 60 128 0.0 0.0 0.00 0.00 0.00 78 1008.3
20260510000007 60 128 0.0 0.0 0.00 0.00 0.00 77 1008.4
20260509235007 61 128 0.0 0.0 0.00 0.00 0.00 76 1008.3
20260509234006 62 80 0.0 0.0 0.00 0.00 0.00 75 1008.2
20260509232007 63 75 0.0 0.0 0.00 0.00 0.00 73 1008.1
20260509231006 63 66 0.0 0.0 0.00 0.00 0.00 73 1008.1
20260509225007 63 18 0.0 0.0 0.00 0.00 0.00 72 1008.0
20260509224007 63 140 0.0 0.0 0.00 0.00 0.00 72 1008.0
20260509222007 63 39 0.0 0.0 0.00 0.00 0.00 72 1008.2
20260509221007 62 124 0.0 1.0 0.00 0.00 0.00 73 1008.1
20260509220007 62 37 0.0 0.0 0.00 0.00 0.00 73 1008.1
20260509215006 62 35 0.0 12.0 0.00 0.00 0.00 72 1008.1
20260509214006 62 58 0.0 0.0 0.00 0.00 0.00 72 1008.0
20260509213006 63 134 0.0 0.0 0.00 0.00 0.00 72 1008.0
20260509212007 63 40 0.0 18.0 0.00 0.00 0.00 71 1008.0
20260509211007 63 19 0.0 0.0 0.00 0.00 0.00 69 1007.9
20260509210006 63 31 0.0 0.0 0.00 0.00 0.00 69 1008.1
20260509205007 64 273 0.0 16.0 0.00 0.00 0.00 69 1008.0
20260509204007 64 335 0.0 0.0 0.00 0.00 0.00 69 1008.1
20260509203006 63 47 0.0 0.0 0.00 0.00 0.00 69 1008.1
20260509201006 64 268 0.0 0.0 0.00 0.00 0.00 69 1008.1
20260509200006 64 34 0.0 0.0 0.00 0.00 0.00 69 1008.2
20260509195007 64 47 0.0 17.0 0.00 0.00 0.00 69 1008.2
20260509194007 64 45 0.0 1.0 0.00 0.00 0.00 69 1008.3
20260509193006 65 48 0.0 0.0 0.00 0.00 0.00 68 1008.1
20260509192006 64 23 0.0 15.0 0.00 0.00 0.00 68 1008.3
20260509190007 64 24 0.0 0.0 0.00 0.00 0.00 65 1008.7
20260509185007 64 295 0.0 14.0 0.00 0.00 0.00 66 1009.0
20260509184007 65 281 0.0 0.0 0.00 0.00 0.00 67 1009.1
20260509183007 64 307 0.0 0.0 0.00 0.00 0.00 67 1009.2
20260509182007 64 350 0.0 17.0 0.00 0.00 0.00 65 1009.0
20260509181006 64 349 0.0 0.0 0.00 0.00 0.00 65 1009.1
20260509175007 65 284 0.0 2.0 0.00 0.00 0.00 63 1009.2